Theta_e
325 322 320 319 317 315 316 316 315 315 315 314 312 311 309 308 309 309 307 307 305 304
326 324 322 320 318 317 316 318 317 317 316 314 313 312 311 309 308 308 307 309 304 303
327 325 324 322 320 318 319 318 319 318 316 315 316 316 311 310 309 310 309 307 307 305
327 326 325 324 323 321 320 325 324 322 320 318 317 316 311 310 308 310 308 309 308 307
328 326 326 326 328 327 327 326 324 322 320 319 319 315 313 313 312 312 310 310 308 308
327 325 326 326 324 322 321 320 321 321 320 319 319 317 316 314 313 312 312 311 309 309
326 326 325 324 322 322 321 318 319 317 316 317 318 319 318 315 313 313 314 314 312 312
325 326 324 323 322 325 324 322 321 319 318 318 317 318 317 317 315 314 314 313 314 314
325 326 325 323 323 325 325 324 322 321 321 319 320 314 312 316 316 316 316 315 315 315
324 322 322 324 323 321 321 320 319 319 320 317 319 311 309 311 316 317 316 316 316 313
322 320 321 319 318 317 317 317 319 318 317 316 319 310 307 308 312 314 317 316 314 312
315 314 313 314 315 316 315 315 315 317 317 316 318 310 307 306 311 312 313 313 313 312
312 311 311 311 311 315 314 315 317 316 315 314 316 309 305 307 311 312 312 311 311 308
312 313 313 311 310 311 313 313 312 314 314 314 313 314 304 303 310 311 310 309 308 308
Wind_Speed
8 5 5 5 4 4 4 4 3 5 5 6 6 5 5 3 4 4 3 5 3 2
7 7 6 6 5 4 5 4 5 5 5 6 6 6 6 4 4 4 4 4 4 2
6 7 6 5 6 6 5 6 6 6 6 6 7 7 6 4 4 5 3 4 5 4
6 6 6 6 6 6 5 6 7 7 7 8 8 7 6 6 6 6 6 5 5 6
5 5 6 6 6 6 7 6 6 6 6 7 8 7 7 9 7 7 6 7 5 6
6 5 6 6 6 5 5 4 4 4 5 6 8 8 8 7 7 7 8 7 7 7
6 7 7 6 5 5 5 5 5 5 5 6 6 7 8 8 7 8 8 8 9 6
5 5 4 5 5 5 5 5 5 5 5 5 5 5 6 6 8 8 8 7 8 8
5 4 6 5 5 4 5 6 6 7 6 6 5 9 10 9 8 10 10 10 9 9
2 4 3 3 4 5 6 4 6 6 5 7 7 11 12 13 8 9 9 10 8 7
0 2 5 4 2 3 3 4 5 5 6 6 7 10 11 10 6 6 9 9 9 10
7 8 7 7 7 5 4 4 4 5 6 6 8 10 10 3 4 5 7 7 8 9
6 7 11 9 7 4 2 5 5 7 6 8 8 8 8 6 3 5 5 5 6 11
2 4 4 4 4 5 6 6 6 6 7 7 7 7 9 9 4 4 4 5 4 5
Wind_Direction
200 196 200 195 186 205 210 217 219 227 222 222 218 213 204 202 206 190 181 179 196 162
190 196 204 204 194 200 204 223 225 219 222 226 218 211 197 210 213 173 198 210 173 177
208 196 196 188 206 209 219 212 219 217 210 219 218 210 194 200 209 208 202 193 182 183
214 213 207 199 198 202 209 218 214 221 217 210 212 213 198 207 208 213 209 207 199 203
226 211 221 216 209 191 212 205 214 207 213 216 215 207 206 215 208 210 211 210 207 218
219 202 221 217 206 214 224 228 232 222 218 214 215 213 216 215 211 210 218 213 210 213
241 200 209 220 224 231 215 217 225 234 239 233 226 226 215 212 218 227 223 216 224 218
255 267 244 233 233 226 214 215 219 221 233 235 227 229 215 219 229 229 235 221 216 220
265 281 264 258 249 230 223 218 213 210 213 225 229 233 230 230 229 235 232 235 229 217
228 261 268 256 238 252 255 263 249 251 234 237 228 223 231 230 239 245 237 237 229 215
222 298 299 293 274 295 288 265 270 269 263 254 254 235 233 234 229 238 247 240 221 207
15 356 344 345 332 304 285 282 274 268 272 254 261 255 240 211 242 247 248 231 216 204
91 49 355 343 326 297 294 295 292 284 263 256 263 271 266 232 209 248 254 237 227 205
16 90 153 274 316 307 314 306 291 280 277 264 237 250 235 225 225 217 230 219 203 195